[Date Prev][Date Next][Thread Prev][Thread Next][Date Index][Thread Index]
[jamsat-news:577] jas2info3 #40
=========================   ºÇ¿·¾ðÊó   ===========================
        Last updated ¡§Sat,28¡Ý June¡Ý97 20:30 (JST) ¡ô40
================================================================
   
     ±ÒÀ±¾ðÊ󡡣ƣϥ·¥ê¡¼¥º¤Îµ°Æ»Í×ÁÇ¡¢¥Æ¥ì¥á¥È¥ê¡¢£Ñ£Ó£Ï¤Î¾õ¶·Åù¤ò¤Þ
   ¤È¤á¤Æ¤ß¤Þ¤·¤¿¡¥
  1¡Ë£Æ£Ï¡Ý£²£¹¡Ê¤Õ¤¸£³¹æ¡Ë¤Ï£¶·î£²£¸Æü¡ÊÅڡˤΣ±£¸ ¡§£±£¸¡Ê£Ê£Ó£Ô¡Ë¤Î¥Ñ¥¹¤Ç¤Ï£Ê£Ä¥Ç¥£¥¸
     ¥¿¥ë¥â¡¼¥É¤Î£¹£¶£°£°£â£ð£ó¤«¤é¡¢JA¥¢¥Ê¥í¥°¥â¡¼¥É¤ËÊѤï¤ê¡¢£Ê£Á£Ò£Ì¤Î¥¹¥±¥¸¥å¡¼¥ë
     ¤É¤¦¤ê¤Ë±¿ÍѤµ¤ì¤Æ¤¤¤Þ¤¹¡¥ 
    
  ¡¦µ°Æ»Í×ÁÇ1¡§¡Öjamsat¡¼keps¡§£µ£¹£¸¡×¤è¤ê
                SB KEPS @ AMSAT  $ORBS-178.N
                2Line Orbital Elements 178.AMSAT
      HR AMSAT ORBITAL ELEMENTS FOR AMATEUR SATELLITES IN NASA FORMAT
      FROM WA5QGD FORT WORTH,TX June 27, 1997
      SEND SUBSCRIBE/UNSUBSCRIBE TO listserv@amsat.org ONLY
      BID: ORBS-178.N
             
   DECODE 2-LINE ELSETS WITH THE FOLLOWING KEY:
  1 AAAAAU 00  0  0 BBBBB.BBBBBBBB  .CCCCCCCC  00000-0  00000-00 
    DDDZ
  2 AAAAA EEE.EEEE FFF.FFFF GGGGGGG HHH.HHHH III.IIII JJ.JJJJJJJJ
    KKKKKZ
  KEY: A-CATALOGNUM B-EPOCHTIME C-DECAY D-ELSETNUM E-INCLINATION 
       F-RAAN
  G-ECCENTRICITY H-ARGPERIGEE I-MNANOM J-MNMOTION K-ORBITNUM 
       Z-CHECKSUM
   FO-29
  1 24278U 96046B   97177.09135984  .00000037  00000-0  71781-4 0 01099
  2 24278 098.5388 217.1087 0351631 163.0142 198.3121 13.52632679042328
 
  ¡¦µ°Æ»Í×ÁÇ¡§¡Öjamsat¡¼keps¡§£µ£¹£¹¡×¤è¤ê
            SB KEPS @ AMSAT  $ORBS-178.O
            Orbital Elements  178.OSCAR
     HR AMSAT ORBITAL ELEMENTS FOR OSCAR SATELLITES
     FROM WA5QGD FORT WORTH,TX June 27, 1997
     SEND SUBSCRIBE/UNSUBSCRIBE TO listserv@amsat.org ONLY
     BID: ORBS-178.O
     TO ALL RADIO AMATEURS BT
  Satellite: FO-29
  Catalog number: 24278
  Epoch time:      97177.09135984
  Element set:    0109
  Inclination:      098.5388 deg
  RA of node:       217.1087 deg
  Eccentricity:    0.0351631
  Arg of perigee:   163.0142 deg
  Mean anomaly:     198.3121 deg
  Mean motion:   13.52632679 rev/day
  Decay rate:        3.7e-07 rev/day^2
  Epoch rev:           04232
  Checksum:              318
 -----------------------------------------------------------
   ¡ö£Æ£Ï¡Ý£²£¹ ¤ÎFM¥Ç¥¸¥È¡¼¥«¤Ë¤Ä¤¤¤Æ
 
  £±¡Ë [jamsat-2544]¤Ë£Ê£Á£³£Ã£Æ¤Î´äºê¹¥¹¨¤µ¤ó¤¬Åê¹Æ¤µ¤ì¤Æ¤Þ¤¹¡¢
      °ìÉô¤Ç¤¹¤¬¤´¾Ò²ð¤·¤Þ¤¹¡¥
  
   µ×¤·¤Ö¤ê¤ËFO-29¤Î¥Ç¥¸¥È¡¼¥«¤¬¥ª¥ó¤Ë¤Ê¤Ã¤Æ¤¤¤ë¤È¤¤¤¦¾ðÊó¤Ç¼õ¿®
  ¤·¤Æ¤ß¤Þ¤·¤¿¡£¡ÖThis is JAS-2¡×¤È¤¤¤¦½÷À¤ÎÀ¼¤Ë³¤¤¤Æ¥¦¥°¥¤¥¹¤¬
  ¡Ö¥Û¡¼¥Û¥±¥¥ç¡×¤È¤Ò¤È¤³¤ÈÌĤ¤Þ¤¹¡¥
¡¡  ¤³¤Î¥Ç¥¸¥È¡¼¥«¤¬¿Íµ¤¤¬¤¢¤ë¤Î¤Ç¥¹¥±¥¸¥å¡¼¥ë¤òÊѹ¹¤·¤Æ¤¤¤ë¤½¤¦
  ¤Ç¤¹¤Î¤Ç¡¢¤³¤³¤ËºÇ¿·¾ðÊó¤ò¤ªÆÏ¤±¤·¤Þ¤¹¡¥¡ÊÆâÍÆ¤ÏÆþÌç¼Ô¸þ¤±¡Ë
 ----------------------------------------------------------
¡¡¡¡¡¡¡¡¡¡¡¡¡¡¡¡¡¡¡¡¡Ö¤Õ¤¸£³¹æ¡×¥Ç¥¸¥È¡¼¥«¼õ¿®¥¥Ã¥È
¡¡¡¡¡¡¡¡¡¡¡¡¡¡¡¡¡¡¡¡¡¡¡¡¡¡¡¡¡¡¡¡¡¡¡¡¡¡¡Ê¼Ò¡ËÆüËÜ¥¢¥Þ¥Á¥å¥¢ÌµÀþÏ¢ÌÁ
¡¡¡¡¡¡¡¡¡¡¡¡¡¡¡¡¡¡¡¡¡¡¡¡¡¡¡¡¡¡¡¡¡¡¡¡¡¡¡¡¡¡¡¡µ»½Ñ¸¦µæ½ê
¡¡¡¡´äºê¡¡¹¥¹¨¡¡    £Ê£Á£³£Ã£Æ    E-mail <ja3cf@jamsat.or.jp>
¡¡¡¡¡¡    ¡¡  URL <http://www.asahi-net.or.jp/~pt5y-iwsk>
 £²¡Ë [jamsat-bb 2549]¤Ë¥Ç¥¸¥È¡¼¥«¤Î¼õ¿®¾õ¶·¤ò£Ê£Á£¶£Â£Ø¤Î¹¾ºê¾»Ã˻᤬
   Åê¹Æ¤µ¤ì¤Æ¤Þ¤¹¤Î¤Ç¤´¾Ò²ð¤·¤Þ¤¹¡¥
   ´ûÊó¤Î¡Ö¤¦¤°¤¤¤¹¤ÎÀ¼¡×¥Ç¥¸¥È¡¼¥«¡¼¤ò¥Ï¥ó¥Ç¥£µ¡¤Ç¼¼Æâ¼õ¿®¤ò»î¤ß¤Þ¤·¤¿¡¥
¡¡
¡¡    £´¡¿£´Æü¡¡£²£°¡§£²£µ£Ê£Ó£ÔÁ°¸å¤Î¥Ñ¥¹¤Ç¤·¤¿¤¬¡¢Ìó£¸Ê¬´Ö¥Ï¥ó¥Ç¥£µ¡ÉÕ
   °¤Îû½Ì¥Û¥¤¥Ã¥×¤Ç¤â¥á¥ê¥Ã¥È£µ¤ÇÆþ´¶¤·¤Æ¤¤¤Þ¤·¤¿¡£¡¡¡Ö¥Û¡¼¥Û¥±¥¥ç¡×¤Î
   ¼þÇÈ¿ôÂӰ褬ÆÃ¤Ë¥Ï¥ó¥Ç¥£µ¡¤Î¥ª¡¼¥Ç¥£¥ªÆÃÀ¤Ë¤âÁêÀ¤¬¤è¤¤¤è¤¦¤Ç¤¹¡¥¡¡
¡¡ ¿®¹æ¶¯ÅÙ¤âµîǯ¤Î£¹·î¤Ë¥Ç¥¸¥È¡¼¥«¡¼±¿ÍѤνé´ü¤ËÈæ¤Ù¤ë¤È°ÂÄꤷ¤Æ¡¢
   ¶¯ÎϤˤʤ俤褦¤Ë´¶¤¸¤é¤ì¤Þ¤¹¡¥
¡¡    ¥¢¥Þ¥Á¥å¥¢ÌµÀþ¤ä¡¢±ÒÀ±ÄÌ¿®¤Ë̵´Ø·¸¤Î¿Í¤¿¤Á¤Ëʹ¤«¤»¤Æ¤¢¤²¤ë¤Î¤Ë¤â¤Ã
   ¤Æ¤³¤¤¤Î¥Ç¥â¥ó¥¹¥È¥ì¡¼¥·¥ç¥ó¤È¸À¤¨¤Þ¤¹¡¥
¡¡»ÈÍѵ¡¡§STANDARD C520 
¡¡¥¢¥ó¥Æ¥Ê¡§ÉÕ°¤Îû½Ì·¿¥Û¥¤¥Ã¥×
¡¡¼õ¿®¾ì½ê¡§Ê¡²¬»ÔÆî¶è¡Ê£Ð£Í£µ£³£Å£Î¡ËÌÚ¤²È²°¤ÎÆó³¬
¡¡Å·¸õ¡§±«
                                                      ¡¡°Ê ¾å
    73, de JA6BX - Y. Esaki 34122731@people.or.jp 
                         or, ja6bx@jamsat.or.jp
                             ja6bx@amsat.org  
---------------------------------------------------------------  
 ¡ö£Æ£Ï¡Ý£²£¹¡Ê¤Õ¤¸£³¹æ¡Ë¤Î£¶·î£²8Æü¡ÊÅڡˤΣʣÁ¥¢¥Ê¥í¥°¥â¡¼¥É¤Ç±¿ÍÑÃæ¤Î£Ô£Î£Ã²òÆÉ¤Ë
    ¤è¤ë¥Æ¥ì¥á¥È¥ê¤Î°ìÉôʬ¤Ç¤¹¡¥
    ¡Ê·§ËܻԡË
    AS£´£²£¶£´C  £²£¸£Ê£õ£îe£¹£·
    JST £²£°¡§£°£° ¡¼ £²£°¡§£±£¹
    Freq. £´£³£µ¡¥£¸£°£µ ¡¼£·£¸£· MHz    £Õ£Ó£Â    RS £µ£·¡Á£¹
  HI HI B6 C7 81 D5 03 DE 0A 1A 01 45 3A 95 76 60 92 90 B0 7A B8 B6 B8 B8 B4
  HI HI B6 C7 81 D5 03 DE 0A 1A 01 45 43 93 72 60 92 90 B0      B8 B6 B7 B8 B4 
  HI HI B6 C7 81 D5 03 DE 0A 1A 01 45 8B 97 74 60 92 65 B0 75 B8 B6 B8 B8 B4
  HI HI B6 C7 81 D5 03 DE 0A 1A 01 45 9D 9C 70 60 92 90 B0 86 B8 B6 B8 B8 B4 
  HI HI B6 C7 81 D5 03 DE 0A 1A 01 45 6E 98 75 60 83 90 B9 6A B8 B6 B8 B8 B4 
  £È£É HI B6 C7 81 D5 03 DE 0A 1A 01 45 3  98 7B 60 93 90 B0 7   B8 B6 B7 B7 B4
  HI HI B6 C7 81 D5 03 DE 0A 1A 01 45 3F 99 7C 60 93 90 B0 80 B8 B6 B7 B7 B4
  HI HI B6 C7 81 D5 03 DE 0A 1A 01 45 8D 95 78 60 93 90 B0 64 B8 B6 B7 B8 B4 
  H£É HI B6 C7 81 D5 03 DE 0A 1A 01 45 A9 95 B5 60 93 90 B0    B8 B6 B7 B7 B4
  HI HI B6 C7 81 D
=====================================================================
 2¡Ë£ÆO-20¡Ê¤Õ¤¸£²¹æ¡Ë¡§¡¡£Ê£Á¥â¡¼¥É¤Î±¿ÍѤǽçÄ´¤Ëºîư¤·¤Æ¤¤¤Þ¤¹¡¥
     ¥¢¥Ê¥í¥°¥â¡¼¥É¤Ë¤Æ¤Î£Ñ£Ó£Ï¤ä»×¤ï¤Ì£Ä£Ø¤¬³Ú¤·¤á¤Þ¤¹¡¥
  ¡¦µ°Æ»Í×ÁÇ£± ¡§½Ðŵ¤Ï¡Ö¤Õ¤¸£³¹æ¡×¤ËƱ¤¸¡¥   
 
    FO-20
 1 20480U 90013C   97176.92033719 -.00000005  00000-0  63659-4 0 09787
 2 20480 099.0470 136.8667 0541062 357.7035 002.1598 12.83238711345823
  ¡¦µ°Æ»Í×ÁÇ£² ¡§½Ðŵ¤Ï¡Ö¤Õ¤¸£³¹æ¡×¤ËƱ¤¸¡¥   
 
  Satellite: FO-20
  Catalog number: 20480
  Epoch time:      97176.92033719
  Element set:    0978
  Inclination:      099.0470 deg
  RA of node:       136.8667 deg
  Eccentricity:    0.0541062
  Arg of perigee:   357.7035 deg
  Mean anomaly:     002.1598 deg
  Mean motion:   12.83238711 rev/day
  Decay rate:       -5.0e-08 rev/day^2
  Epoch rev:           34582
  Checksum:              319
   -------------------------------------------------------
 ¡ö£Æ£Ï¡Ý£²£° £Ê£Á¥â¡¼¥É¤Ç£Ò£Ó £µ£¹ÄøÅ٤ǡʼõ¿®´¶Å٤ϥ¢¥ó¥Æ¥Ê¤è¤ê
   ¸«¤ÆÌó£±£²£µ£ä£â¡ËÈó¾ï¤Ë¶¯ÎϤʿ®¹æ¤Ç¼õ¿®¤Ç¤¤Æ¤¤¤Þ¤¹¡£±ÒÀ±¤Î
   ¸½ºß¤Î¾õÂÖ¤òÉ乿²½¤·¡¢ÃΤ餻¤ë¥Ó¡¼¥³¥óÇȤˤΤäƤ¤¤ë¥Æ¥ì¥á¥È¥ê
   ¤Ç¤¹¡¥
    £¶·î£²£¸Æü¡ÊÅÚ¡Ë £Ê£Ó£Ô  £±£µ ¡§£±£µ ¤Î¥Ñ¥¹¤Î °ìÉôʬ¤Ç¤¹¡£
   ¡Ê£Ô£Î£Ã¤Ç²òÆÉ¡Ë
   AS£³£´£¶£°£¸£Ã  £²£·£Ê£õ£î£å£¹£·      £Ã£×   £Ò£Ó £µ£¹¡Ü£±£°£ä£â
   JST £±£³:£´£° - £±£³:£µ£´            £Æ£ò£å£ñ¡¥£´£³£µ¡¥£¸£°£´ ¡Á ¡¥£·£¸£¶£Í£È£ú 
   HI HI 152 148 169 170 285 284 253 262 352 353 
           354 354 401 435 400 500 500 530 500 500 
   HI HI 145 148 169 170 285 284 252 262 352 353 
           354 354 401 435 402 400 500 530 500 500 
   HI HI 139 148 169 1I 1 285 284 252 262 352 353 
           354 354 401 435 402 400 585 530 500 546 
   HI HI 137 148 169 171 285 284 253 262 352 353 
           354 354 401 435 402 400 500 530 500 500 
   HI HI 138 148 170 171 285 284 252 262 352 353 
           354 354 401 435 402 400 500 530 500 500
 -----------------------------------------------------------------
 ¡ö£Æ£Ï¡¼£²£°¤Î£Ê£Á¥â¡¼¥É¤Ç¥¢¥Ê¥í¥°£Ñ£Ó£Ï
   [jamsat-bb:2429]¤ËÅê¹Æ¤µ¤ì¤¿£Ê£Á£¶£Â£Ø¶É¹¾ºê¾»ÃË»á¤Î£Ñ£Ó£Ï¤Î¾õ¶·¤Ç¤¹¡¥
     2/12Æü¤Î18:02JST¤Ë¡¢UA4NM Kirov ¤Î Vlad¤µ¤ó¤ÈFO-20·Ðͳ¤ÇQSO
   ¤·¤Þ¤·¤¿¡¥
  ÅöÊý¤ÏLOSÀ£Á°¤Ç¡¢Åö¶É¤ÎCW¤Ç¤ÎCQ¤ËÅú¤¨¤Æ¤¯¤ì¤¿¤â¤Î¤Ç¤¹¤¬¡¢FO-20¤Ç
  ¤Ï½é¤á¤Æ¤ÎUA4¤Ç¤¹¡¥
  ¡ö ¸åÆü¡¢¹¾ºê»á¤Î¥³¥á¥ó¥È¡§                                  
    ºòÆü£Ñ£Ó£Ï¤Ç¤¤¿£Õ£Á£´£Î£Í¤Ï£±£¹£¸£·Ç¯¤Ë£Á£Ï¡Ý£±£°¤Ç£Ñ£Ó£Ï¤·¤Æ¤¤¤Þ
  ¤¹¤¬¡¢£Æ£Ï¡Ý£²£°¡¿£²£¹¤Î¤è¤¦¤ÊÄãµ°Æ»±ÒÀ±¤Ç¤Ï¡¢ºòǯ¤Î£Ï£È£µ£Ì£Ë°ÊÍè¤Î
  £Ä£Ø¤Ç¡¢ÂçÊѤ¦¤ì¤·¤¯»×¤¤¤Þ¤¹¡¥
                                      73, de JA6BX - Y. Esaki 34122731@people.or.jp 
                                                                         or, ja6bx@jamsat.or.jp          
=========================   £Ê£Á£Ò£Ì±¿ÍѾðÊó   =========================
   JARL News £¶·î¹æ¤ò¸«¤Æ¤¤¤¿¤é¡¢£±£¶¥Ú¡¼¥¸¤Ë¡Ö¤Õ¤¸3¹æ¡×¤Î±¿ÍÑ¥¹¥±¥¸¥å
  ¡¼¥ë¤¬ºÜ¤Ã¤Æ¤¤¤Þ¤·¤¿¡¥
        ¢£ ¤Õ¤¸3¹æ ¢£ ¤Î±¿ÍÑͽÄê
   £¶·î£²£·Æü¡Ê¶â¡Ë  £°£°¡§£±£±¡Ê£°£¹¡§£±£±¡Ë £Ê£Á¥¢¥Ê¥í¥°¥â¡¼¥É
   £··î  £´Æü¡Ê¶â¡Ë  £°£¹¡§£±£³¡Ê£±£¸¡§£±£³¡Ë ¥Ç¥¸¥«¡¼¥È
          £¸Æü¡Ê²Ð¡Ë  £°£¹¡§£°£¶¡Ê£±£¸¡§£°£¶¡Ë £Ê£Á¥¢¥Ê¥í¥°¥â¡¼¥É
 ¡öÀÚÂØ»þ¹ï¤Ï£Õ£Ô£Ã¤Çɽ¼¨¤·¤Æ¤¤¤Þ¤¹¡¥¥«¥Ã¥³Æâ¤Î»þ¹ï¤Ï
   ÆüËÜ»þ´Ö£Ê£Ó£Ô¤Ç¤¹¡¥¤Ê¤ª¡¢ÅÔ¹ç¤Ë¤è¤ê±¿Íѥ⡼¥É¤òÊѹ¹
   ¤¹¤ë¾ì¹ç¤¬¤¢¤ê¤Þ¤¹¡¥
   £Ê£Á¡§¥¢¥Ê¥í¥°·Ï±¿ÍÑ
   £Ê£Ä¡§¥Ç¥£¥¸¥¿¥ë·Ï±¿ÍÑ
       ¡ö1200bps £Ð£Ó£Ë   ¥á¡¼¥ë¥Ü¥Ã¥¯¥¹±¿Íѡʣӣӣ¡Ë
       ¡ö9600bps £Æ£Ó£Ë   ¥á¡¼¥ë¥Ü¥Ã¥¯¥¹±¿Íѡʣƣ͡Ë
       ¡ö¥Ç¥¸¥È¡¼¥«         £Æ£Í²»À¼¥á¥Ã¥»¡¼¥¸Á÷¿®
        ¢£ ¤Õ¤¸£²¹æ ¢£
    ¡Ö¤Õ¤¸£²¹æ¡×¤Ï¥¢¥Ê¥í¥°·Ï¤ÎϢ³±¿ÍѤȤ·¤Þ¤¹¡¥   
 
                                                °Ê¾å¡Ö£Ê£Á£Ò£Ì £Î£Å£×£Ó £¶·î¹æ¤è¤ê¡×
  ¡ö9600bps¤Ï£Æ£Ó£Ë¤Ç¤·¤¿¡¢Åö¶É¤Îžµ¥ß¥¹¤Ç¡¢£Ê£È£±£Ñ£Ñ£Î¶ÉÈÓÌî»á
    ¤è¤ê¤´»ØÅ¦Äº¤¡¢¤³¤³¤ËÄûÀµÃפ·¤Þ¤¹¡¥¡Ê£Ê£È£¶£Í£Í£Å¡Ë
 
 =============   JAS-2 ¡Ê¤Õ¤¸£³¹æ¡Ë¤È¸½ºß¤Þ¤Ç¤Î¾ðÊó   ===========
  
  £Á¡¥ÅÅÏäˤè¤ë¤Õ¤¸£³¹æ¤Î±¿ÍѾðÊó
      ¼ÒÃÄË¡¿ÍÆüËÜ¥¢¥Þ¥Á¥å¥¢Ï¢ÌÁ¤Ë¤è¤ë¥µ¡¼¥Ó¥¹
               £Ô£Å£Ì £Î£ï¡¥   £°£³¡Ý £³£¹£´£² ¡Ý £±£°£°£°
   £¶·î£²£±Æü¡ÊÅڡ˸½ºß¡ô£·£°¤Î£Ê£Ä¥â¡¼¥É£¹£¶£°£°£â£ð£ó¤Î¥Ç¥£¥¸¥¿¥ë
   ±¿ÍѤò·Ñ³¤È¥¹¥±¥¸¥å¡¼¥ëÊѹ¹¤Ï£Ô£Å£Ì¥µ¡¼¥Ó¥¹¤ÇÏ¢Íí¤Î¥¢¥Ê¥¦¥ó¥¹¤¬
   ή¤ì¤Æ¤¤¤Þ¤¹¡¥
  £Â¡¥¥¢¥Þ¥Á¥å¥¢ÌµÀþ£Æ£Á£Ø¥µ¡¼¥Ó¥¹
      £Ê£Á£Ò£Ì¤Ë¤è¤ë¤Õ¤¸£³¹æ¤Îµ°Æ»¾ðÊó¡Ê¥ª¡¼¥Ó¥Ã¥È¥«¥ì¥ó¥À¡¼¡Ë
         £Æ£Á£Ø £Î£ï¡¥  £°£³¡Ý £³£²£³£³ ¡Ý£°£°£µ£µ 
  £Ã¡¥£×£×£×¥Ö¥é¥¦¥¶¤Ç¾ðÊó¤ò´Êñ¤Ë¸«¤ì¤ë¿Í¤Î¤¿¤á¤Ë£Ê£Á£Ó¡Ý£²
     ¤Õ¤¸£³¹æ¤Î±ÒÀ±¤È¤·¤Æ¤Î±¿ÍѤµ¤ì¤ë¤Þ¤Ç¤Î̾Á°¡Ë¤Î³µÍס¢ÂǤÁ¾å¤²
     ¤Þ¤Ç¤Î¾õ¶·¡¢±¿ÍÑÃæ¤Ë¤ª¤±¤ë¾õ¶·¤òÀâÌÀ¤·¤¿¥Û¡¼¥à¥Ú¡¼¥¸¤ò¾Ò²ð¤·
     ¤Æ¤ª¤¤Þ¤¹¡¥
    £±¡Ë¼ÒÃÄË¡¿ÍÆüËÜ¥¢¥Þ¥Á¥å¥¢ÌµÀþÏ¢ÌÁ¡Ê£Ê£Á£Ò£Ì¡Ë¤Î¥Û¡¼¥à¥Ú¡¼¥¸
          http://www.jarl.or.jp/jarl/jas-2/index.htm
               ¡Ê£±£¹£¹£·¡¥£·¡¥£±¤è¤ê¿·¥Û¡¼¥à¥Ú¡¼¥¸¤ÇÅоìͽÄê¡Ë        
    £²¡Ë±§Ã賫ȯ»ö¶ÈÃġʣΣÁ£Ó£Ä£Á¡Ë¥Û¡¼¥à¥Ú¡¼¥¸ 
          http://www.nasda.go.jp/
         ÂǾ夲±ÒÀ±¡¡¡§Ãϵå´Ñ¬¥×¥é¥Ã¥È¥Õ¥©¡¼¥àµ»½Ñ±ÒÀ±¡ÊADEOS¡Ë 
                       ¥¢¥Þ¥Á¥å¥¢±ÒÀ±£³¹æ(JAS-2)
          http://yyy.tksc.nasda.go.jp/Home/Press/Press-j/jas-2_j.html
                                                       
  £Ä¡¥£Ê£Á£Í£Ó£Á£Ô¤Ë¤è¤ëµ°Æ»¾ðÊó¤Î³èÍÑ
        JAMSAT¤Î¥Û¡¼¥à¥Ú¡¼¥¸¤Þ¤¿¤Ïjamsat¡Ýkeps¤Îµ°Æ»Í×ÁǤè¤ê
      ±ÒÀ±¤Îµ°Æ»¾ðÊó¤òÆÀ¤ë¡¥
      
